GEFSGL_500_meanwind_228.txt.gz
Wind_Speed
3 3 3 4 4 4 5 6 7 7 8 8 9 9 9 9 10 10 11 11 12 12 13 14 14 14 15 16 16 17 17 18 19 19 20 20 20 20 20 20 20 21 21
5 5 5 6 6 5 6 7 8 8 9 10 10 10 11 11 12 13 13 14 14 15 15 15 16 16 16 17 17 18 18 19 19 18 19 19 20 20 21 21 21 22 23
7 7 7 8 8 8 8 8 9 10 11 12 12 12 12 13 14 14 15 15 15 16 16 17 17 16 17 17 18 18 19 19 19 19 19 20 21 22 22 22 23 24 25
9 10 10 10 10 10 10 11 12 12 12 13 13 14 14 14 15 16 16 16 16 16 17 17 18 17 18 19 19 20 20 20 21 22 22 23 23 23 24 24 25 26 26
12 12 12 12 12 12 12 13 14 14 14 15 15 15 16 16 17 17 17 17 17 18 18 19 19 19 19 20 20 21 22 22 23 23 24 24 25 25 26 26 27 27 28
15 14 14 14 13 13 14 15 15 16 16 17 17 17 17 18 18 18 18 19 19 20 20 21 21 21 21 22 22 23 24 24 24 24 25 25 25 26 27 27 27 28 29
18 18 16 16 16 16 17 18 18 18 19 19 20 20 20 20 20 20 20 21 21 22 23 23 23 23 24 24 24 25 25 25 26 26 26 26 27 27 28 28 28 29 29
20 19 19 19 20 20 21 21 21 22 22 22 22 22 22 22 22 22 22 23 23 24 24 24 25 25 26 27 27 26 27 27 27 27 28 28 28 28 28 29 29 29 29
22 22 22 23 23 24 24 24 24 24 24 24 24 25 25 24 24 24 24 25 25 26 26 26 26 26 27 28 29 29 28 28 28 28 28 28 28 29 29 29 29 30 30
25 25 25 26 26 26 27 27 27 27 27 27 27 27 27 27 27 27 27 27 27 28 28 28 29 29 29 29 30 30 30 29 29 30 29 29 29 30 30 30 30 30 30
28 28 28 29 29 29 30 30 30 30 30 31 30 30 30 29 29 29 29 29 29 29 30 30 31 31 30 30 30 29 30 30 30 30 30 30 31 30 30 30 30 30 30
30 30 31 31 31 32 32 32 32 33 33 33 32 32 31 31 30 31 31 32 31 31 31 31 31 32 30 30 30 30 31 30 30 31 31 31 32 31 31 31 32 32 31
32 33 33 34 34 33 33 33 33 33 33 33 31 31 31 31 32 32 33 32 32 32 32 31 32 31 32 32 32 32 31 31 32 32 32 32 32 32 32 32 32 32 32
33 33 34 35 35 34 33 33 33 32 32 33 31 31 31 32 33 33 32 32 32 32 32 32 32 33 33 33 32 32 32 32 32 32 32 32 32 32 33 33 33 33 33
33 33 33 34 34 34 33 33 33 33 34 34 33 33 32 33 34 34 34 34 34 34 34 34 34 34 34 33 34 34 33 33 33 33 33 32 32 33 33 33 33 33 32
34 33 33 33 33 33 33 33 34 35 35 35 34 33 33 34 35 35 36 36 36 35 34 34 34 33 34 34 34 34 34 34 34 34 34 33 33 33 33 33 33 33 33
35 34 34 34 34 34 34 34 35 35 35 34 34 35 35 35 35 35 36 36 36 35 35 35 34 35 36 36 35 35 34 34 34 35 35 34 34 33 33 32 32 32 32
36 36 36 36 36 35 35 35 34 34 34 33 34 35 36 36 36 36 36 36 36 36 36 36 36 36 36 36 35 35 35 35 35 35 35 34 34 33 33 32 31 32 32
37 37 37 37 36 35 35 35 35 35 34 34 34 35 36 36 37 37 37 37 36 36 36 36 36 36 36 35 35 35 36 36 36 36 35 34 34 33 33 32 32 32 32
37 37 36 36 36 36 36 35 34 34 35 35 35 35 36 37 37 37 37 38 38 37 37 36 36 36 36 36 35 35 35 35 35 35 35 34 34 33 33 33 33 33 33
36 36 35 35 36 36 36 35 35 35 35 35 35 36 37 37 37 37 37 38 37 37 37 37 36 36 36 36 36 35 35 34 34 34 34 34 34 34 34 33 33 34 34
34 34 35 35 35 35 35 36 35 34 35 35 35 36 37 37 37 37 37 37 37 38 37 36 36 36 36 36 36 35 34 34 34 34 34 34 35 34 34 34 34 34 33
33 34 34 34 34 35 36 36 35 34 35 36 36 36 37 37 37 38 38 38 38 37 36 36 36 36 36 36 36 35 35 35 34 34 34 35 35 35 35 35 35 34 33
32 32 33 33 34 34 34 35 34 33 34 34 34 35 36 37 37 37 37 37 37 36 36 36 36 35 36 36 36 36 35 35 35 35 35 36 36 36 36 36 36 35 34
31 31 31 32 32 32 33 33 33 33 33 34 34 35 36 36 36 36 36 36 36 35 35 36 36 36 36 36 36 36 35 35 35 35 35 35 35 35 35 35 35 34 33
29 29 29 30 31 32 32 32 33 33 33 33 34 34 34 35 35 35 35 35 35 35 36 36 36 36 36 36 36 36 36 36 35 35 35 35 35 34 34 34 33 32 31

GEFSGL_500_meanwind_234.txt.gz
Wind_Speed
6 5 6 5 5 5 5 5 6 7 7 7 8 9 10 10 11 11 11 10 10 10 11 12 13 14 15 15 16 17 17 18 18 18 19 20 21 21 22 22 23 23 22
8 7 7 7 7 7 7 7 9 9 10 10 10 10 11 12 12 13 12 12 13 13 13 14 15 15 16 17 17 18 18 19 20 20 20 21 22 23 23 24 24 25 24
10 10 10 9 9 10 10 10 11 12 12 12 12 12 12 13 14 14 14 14 14 14 15 16 16 17 18 19 19 19 20 21 22 22 23 23 24 24 23 24 24 25 25
12 12 12 12 12 13 13 13 14 14 14 14 14 14 15 15 15 15 15 15 15 16 16 17 18 18 19 20 20 21 22 23 24 24 24 24 24 24 24 25 25 25 26
15 15 15 14 14 15 15 16 16 16 16 15 16 16 17 17 17 17 17 17 17 17 18 18 18 19 20 21 22 23 24 25 25 25 25 25 24 24 25 25 26 27 27
17 17 18 17 18 18 18 18 18 18 17 16 16 17 18 19 18 18 18 18 19 18 19 20 20 21 22 23 24 25 25 25 25 25 25 25 25 26 27 27 28 28 28
20 20 21 20 21 21 21 21 20 20 20 18 18 18 19 20 20 20 20 20 20 20 21 22 23 23 23 24 25 26 26 26 27 26 27 27 28 28 29 29 28 29 29
24 24 24 24 24 24 24 24 23 23 22 20 20 21 21 22 22 23 22 22 22 23 23 24 25 25 26 26 26 27 27 27 28 28 28 28 29 29 29 29 29 30 30
26 26 26 26 27 28 27 26 25 26 25 25 24 24 25 26 26 26 25 25 26 26 26 28 28 28 28 28 28 28 28 29 29 29 28 29 29 29 29 30 30 31 31
28 28 29 29 30 30 29 29 28 28 28 29 29 28 28 28 29 29 28 28 28 29 29 30 30 31 30 29 28 28 29 30 30 30 30 30 30 30 30 31 31 31 31
30 30 31 31 31 31 30 30 30 30 30 31 31 30 30 31 30 30 29 30 30 30 31 31 31 31 31 31 30 30 30 30 30 31 31 31 31 31 31 31 31 30 30
32 32 32 32 33 32 32 32 32 33 33 33 33 33 33 33 32 32 31 31 32 32 31 31 31 31 32 32 32 32 32 32 32 33 32 32 32 32 32 31 31 31 32
33 33 33 33 34 35 34 34 34 34 35 35 35 34 34 33 33 33 33 32 33 33 32 32 32 32 32 33 33 33 33 33 34 34 33 33 32 32 32 32 32 33 33
34 34 35 35 35 36 35 35 35 36 35 35 35 35 35 35 35 35 34 33 33 33 32 32 32 33 33 34 34 34 34 34 34 34 32 32 32 33 33 32 33 33 33
37 37 37 36 36 37 37 37 37 37 37 36 35 36 35 36 36 35 35 34 34 34 34 34 34 34 35 36 35 35 35 35 35 35 34 34 33 34 34 33 33 33 33
38 38 38 37 37 38 38 38 38 38 38 37 37 37 37 37 37 37 37 36 35 35 34 34 35 35 36 36 36 36 35 36 35 35 35 35 34 34 34 33 33 33 33
38 38 38 38 38 38 38 38 37 37 37 37 39 39 39 39 39 39 38 37 36 35 35 36 36 36 36 36 36 36 35 36 36 35 36 36 35 34 33 32 32 32 32
38 38 38 38 38 38 37 38 38 37 38 38 38 39 38 38 39 39 39 37 36 36 36 36 36 36 36 36 36 36 36 36 36 36 36 35 34 33 32 31 31 31 32
38 37 37 37 37 37 38 38 39 39 39 39 38 38 38 38 38 37 37 37 37 37 36 36 36 37 37 37 37 36 36 36 36 36 36 34 33 33 32 32 31 32 32
37 37 37 37 37 38 38 38 39 39 39 39 38 37 37 38 37 36 37 38 37 37 37 38 38 38 38 37 36 36 36 36 36 35 34 33 33 33 33 32 32 31 31
37 36 36 36 36 36 36 36 36 36 37 36 36 36 36 36 37 37 38 38 38 38 37 37 38 38 37 37 36 36 35 34 34 34 34 34 34 34 34 33 32 31 31
36 36 36 35 35 35 36 36 36 36 36 36 35 35 35 36 35 36 37 38 37 37 37 36 36 36 36 36 35 34 34 34 34 34 35 35 35 35 34 34 33 32 32
34 34 34 34 33 33 34 34 34 33 33 32 32 33 34 34 35 35 36 36 35 36 37 36 36 36 36 36 35 35 34 34 35 35 35 35 35 35 35 35 34 33 33
32 32 31 31 31 30 31 31 31 31 31 31 32 32 33 33 33 34 34 35 35 36 35 35 35 35 35 35 34 34 34 35 35 35 35 35 35 35 35 35 34 34 34
30 29 29 29 29 29 29 30 30 30 31 32 32 32 32 32 32 33 33 34 34 34 34 34 35 35 35 35 35 35 35 36 36 36 35 36 36 36 35 35 35 34 34
27 26 27 28 29 29 29 29 30 31 31 32 32 31 32 32 32 32 33 34 34 34 34 35 35 35 35 35 35 35 36 36 36 36 36 36 36 35 35 35 35 34 34

GEFSGL_500_meanwind_240.txt.gz
Wind_Speed
8 8 8 8 8 7 7 7 7 7 8 8 9 9 10 11 11 12 12 12 12 13 13 13 13 14 15 16 16 17 17 17 17 18 19 20 20 20 21 21 22 23 24
10 10 10 10 9 9 8 8 9 9 10 10 10 11 12 12 13 13 13 13 13 13 13 14 14 15 16 17 17 18 19 19 19 20 21 21 22 22 23 23 24 24 25
11 11 11 11 10 10 10 10 10 11 11 12 13 14 14 14 15 15 15 15 14 15 15 16 16 17 18 18 18 19 20 20 21 21 22 22 23 24 25 25 25 25 26
13 13 13 13 13 12 13 13 13 13 14 14 15 16 16 16 17 17 17 16 17 17 17 18 18 19 20 20 20 21 21 22 22 22 23 24 25 25 26 26 25 25 25
15 15 15 15 15 15 15 15 15 15 16 16 17 18 18 18 19 18 18 18 18 18 18 19 20 21 22 22 22 23 23 23 24 24 25 26 27 27 27 27 27 26 25
18 18 18 18 18 18 18 18 18 18 18 18 18 19 20 20 21 20 20 20 19 19 20 21 22 23 23 23 23 24 25 25 26 26 26 27 27 27 28 28 27 26 26
20 20 21 21 21 21 21 21 21 21 21 21 21 22 22 22 23 23 23 23 22 22 22 22 23 24 24 24 24 25 26 26 27 28 28 28 29 29 29 28 28 27 27
22 22 23 24 24 23 24 24 23 24 24 23 24 24 24 25 25 26 26 26 24 24 24 24 24 25 26 26 26 27 28 29 29 30 29 30 30 30 29 29 29 29 28
25 25 25 26 26 26 26 26 26 27 27 27 26 26 26 26 26 27 27 27 27 26 27 28 27 28 28 29 29 29 30 30 31 30 29 30 31 31 30 29 30 30 29
28 27 27 28 28 28 28 29 29 29 29 29 29 29 28 28 28 29 29 30 29 29 30 30 30 30 31 31 31 31 31 31 31 30 31 31 31 31 32 30 30 30 30
30 30 30 31 30 30 30 31 31 32 32 32 32 31 32 31 31 31 32 31 31 31 32 32 32 32 32 32 32 32 32 32 32 32 32 32 32 33 33 32 31 32 32
32 33 33 33 32 32 32 32 33 34 34 34 34 34 34 33 33 34 34 34 34 34 34 34 34 33 33 33 33 33 33 34 33 33 33 32 33 34 33 33 33 33 33
33 33 34 34 34 34 34 34 34 35 35 36 36 36 36 36 35 35 36 36 37 37 37 36 35 35 34 35 35 35 35 35 34 34 34 33 33 34 34 33 33 34 34
34 34 35 35 35 35 36 36 36 36 36 37 37 37 36 36 37 38 39 39 39 38 38 38 36 36 37 37 36 37 37 36 35 35 35 34 34 35 35 34 34 33 33
35 35 35 35 36 36 37 37 37 37 37 37 38 38 38 38 38 39 39 39 39 39 38 38 38 38 38 38 38 38 37 37 36 36 35 35 34 35 35 35 33 33 33
36 36 36 37 37 37 38 38 38 37 38 38 39 40 39 39 38 38 38 39 39 39 39 38 39 39 38 38 39 38 38 37 37 37 36 36 35 35 35 35 34 34 33
36 37 38 38 38 38 38 38 38 38 39 39 39 39 39 39 38 38 38 38 38 38 38 38 39 39 39 38 38 38 38 37 37 36 36 36 36 35 35 35 35 34 34
36 37 37 38 38 38 38 39 39 39 39 39 39 39 39 39 39 38 38 39 39 38 38 39 39 39 39 38 38 38 38 38 37 37 37 37 37 37 36 35 35 34 34
38 38 38 38 39 39 39 39 39 39 39 39 39 38 39 39 39 39 39 39 39 39 39 39 39 39 38 38 37 38 38 38 37 37 38 38 37 37 36 36 35 35 34
38 38 38 38 38 38 38 38 38 38 39 39 38 37 37 37 37 38 38 39 38 37 37 38 37 37 36 36 37 37 38 37 37 37 38 38 37 37 37 36 35 35 35
37 37 37 37 36 36 37 37 37 37 37 36 36 36 36 36 36 35 35 35 34 34 34 35 35 36 36 37 38 37 37 37 38 38 38 38 37 36 36 35 35 34 35
36 36 36 37 37 35 35 35 34 34 34 34 35 35 36 36 35 35 34 33 33 33 34 34 35 35 36 36 36 36 37 38 38 38 38 37 36 36 35 35 35 34 34
35 35 35 36 36 34 33 33 33 33 33 34 34 34 35 34 34 33 33 33 33 33 34 34 35 35 36 36 37 37 37 37 37 36 36 36 35 35 35 35 34 34 33
33 33 33 33 33 33 33 33 33 33 32 33 34 34 34 33 33 33 33 32 32 32 33 34 34 35 35 35 35 36 36 36 36 36 36 35 35 34 35 35 35 34 33
32 32 32 32 32 32 32 32 32 33 33 34 34 34 34 33 33 33 33 32 32 33 33 33 33 33 34 34 35 35 35 35 36 36 35 35 35 35 36 36 35 34 34
31 31 31 32 32 32 31 32 32 32 32 31 31 32 32 33 34 34 33 33 33 33 33 33 33 33 33 33 34 35 35 36 36 36 36 36 36 36 36 36 35 34 33

GEFSGL_500_meanwind_246.txt.gz
Wind_Speed
6 6 5 5 5 5 4 4 5 5 6 6 6 6 6 6 7 8 8 8 9 10 10 10 11 11 11 11 11 12 12 13 13 14 16 17 18 19 19 20 21 21 21
7 7 6 6 7 7 7 6 7 8 8 8 8 8 9 9 10 10 11 11 12 13 12 12 13 13 13 13 13 14 14 15 15 15 16 17 18 19 20 21 22 22 22
10 9 9 8 9 9 9 9 10 11 11 11 11 11 11 12 12 13 13 14 14 15 15 15 15 15 15 15 15 15 16 17 17 17 18 19 19 20 21 22 22 22 23
12 12 12 11 11 12 11 12 12 13 13 14 14 14 14 14 15 15 16 16 16 16 17 17 17 18 17 16 17 17 18 18 19 20 20 21 21 22 22 23 23 23 24
14 15 14 14 14 14 14 14 15 15 16 16 16 17 17 17 17 17 17 17 17 18 18 18 19 20 20 19 19 19 20 21 21 22 22 22 23 24 24 24 24 25 25
16 16 16 16 16 16 16 16 17 17 17 18 18 19 19 19 20 20 20 20 20 20 21 21 22 23 23 22 21 22 22 22 22 23 24 24 24 25 25 25 26 26 26
18 18 18 19 19 20 20 20 20 19 19 20 20 20 20 21 22 23 23 23 23 23 23 23 23 23 23 23 23 23 24 24 24 25 26 26 26 25 25 26 26 26 26
21 21 21 22 23 23 23 23 23 23 22 22 23 24 24 24 24 25 25 25 25 25 26 26 24 24 24 24 23 23 24 25 26 26 26 26 25 25 25 26 26 26 26
22 23 24 24 25 25 25 25 25 25 25 25 26 26 27 26 27 27 27 27 26 26 27 27 26 26 26 26 26 26 27 27 27 28 27 27 26 26 26 27 28 27 27
25 26 27 27 27 27 27 28 28 28 28 28 28 28 29 29 30 30 30 30 30 30 30 29 29 29 29 29 30 29 28 28 29 29 29 29 28 28 29 29 29 29 28
27 27 28 28 28 28 29 29 30 30 31 31 31 31 31 32 32 32 33 33 33 32 32 32 31 31 31 32 32 31 30 31 31 31 31 31 31 31 31 31 31 31 30
28 28 29 29 30 30 30 30 31 32 33 33 33 33 34 34 35 35 35 34 34 34 34 34 33 34 34 33 33 32 32 33 33 33 32 32 32 32 33 33 32 32 31
30 30 30 31 31 31 31 32 33 33 34 34 34 34 35 35 36 36 36 36 36 36 36 36 36 35 36 35 34 34 34 34 34 34 34 34 34 34 34 35 34 33 33
30 31 32 32 32 33 33 34 34 34 34 35 35 35 36 36 37 37 37 37 37 38 38 37 37 37 37 36 36 36 36 35 36 35 35 36 36 35 35 36 35 34 33
31 32 33 34 34 34 34 34 34 35 35 35 35 36 36 36 37 37 38 38 38 38 38 37 38 38 37 37 37 36 37 36 36 37 37 36 36 36 36 37 36 35 34
32 33 34 34 34 34 35 35 35 36 36 36 35 35 35 35 35 36 37 37 37 38 38 38 38 38 38 38 38 38 38 38 38 38 38 37 37 37 37 37 36 35 34
34 34 34 34 35 35 35 35 35 35 36 36 36 36 36 35 36 37 37 37 37 37 38 38 38 38 38 38 38 39 39 39 39 38 38 38 37 37 37 37 36 36 35
35 35 35 34 35 36 36 35 35 35 35 35 35 35 35 35 36 36 36 37 37 37 37 37 37 38 38 38 38 38 37 37 37 37 37 36 36 36 36 36 37 37 36
34 34 34 34 34 34 35 34 34 34 34 34 34 34 35 35 35 35 36 37 37 37 36 35 36 37 37 37 36 36 36 35 35 35 35 36 36 36 36 36 36 36 36
33 33 33 32 32 33 33 33 33 34 34 34 34 34 34 35 35 35 35 36 35 34 34 34 34 34 34 34 34 34 34 34 34 34 34 35 35 36 36 36 36 36 36
32 33 33 33 33 32 32 33 32 32 33 33 33 33 34 33 33 33 33 33 33 33 32 32 32 32 32 32 32 33 33 34 34 34 34 35 36 36 36 36 36 35 35
32 32 32 32 32 33 33 33 33 33 33 33 33 33 33 32 32 32 32 32 32 32 32 32 31 32 32 33 33 33 34 35 35 36 36 36 36 36 36 36 36 36 35
32 32 32 33 33 33 33 33 33 33 33 33 33 33 32 32 32 32 31 31 32 33 33 32 32 32 32 33 34 34 34 34 35 36 36 35 35 35 35 35 36 36 36
32 32 33 33 32 32 32 32 32 32 32 33 32 32 31 31 31 31 31 32 32 32 33 33 33 33 34 34 34 34 34 34 35 35 35 35 35 35 35 35 35 36 36
31 31 31 31 31 31 32 32 32 32 32 32 32 32 32 31 30 30 30 31 32 32 33 34 35 34 34 34 34 34 34 34 34 34 34 34 35 35 35 35 35 36 36
30 30 30 30 30 30 31 31 31 31 32 32 32 32 31 31 30 30 30 31 31 31 31 32 33 33 34 34 33 33 33 33 33 33 34 34 35 35 35 35 35 35 35

GEFSGL_500_meanwind_252.txt.gz
Wind_Speed
6 6 6 6 6 7 7 7 7 8 8 9 9 10 10 11 11 12 12 12 12 13 13 13 14 14 15 15 16 16 16 16 16 16 17 17 18 19 19 19 20 21 22
9 9 9 8 9 9 9 9 9 10 10 11 12 12 13 13 13 14 14 14 14 14 14 15 15 16 17 17 17 17 18 18 18 19 19 19 20 21 21 21 22 22 23
11 11 11 11 12 12 12 12 12 12 12 12 12 13 14 14 15 16 17 17 16 16 17 17 17 18 19 19 19 20 20 20 20 20 20 21 22 22 22 22 22 23 24
13 13 14 14 14 14 14 14 14 14 14 13 14 15 16 17 17 17 18 18 19 19 19 19 20 20 20 21 21 22 22 22 22 22 23 23 24 24 24 24 24 25 26
16 15 16 16 16 16 16 16 17 17 17 18 18 18 18 19 20 20 20 21 21 21 22 22 22 23 23 23 23 22 23 23 23 24 25 25 25 25 25 26 26 27 27
18 19 19 19 18 18 19 19 20 20 20 21 21 21 21 21 21 22 22 23 23 23 24 24 25 25 25 25 26 26 26 26 25 25 26 26 27 27 27 28 28 28 28
21 21 21 22 22 22 22 22 23 23 24 24 24 23 23 23 24 24 25 25 26 26 26 26 27 28 28 28 28 29 29 28 27 27 27 28 29 29 29 30 30 29 29
24 23 23 23 23 24 25 25 26 26 26 26 27 26 26 26 27 27 27 27 27 28 28 28 29 30 30 30 31 31 30 30 29 29 29 29 30 30 30 31 31 30 30
24 23 24 24 25 25 26 27 27 27 28 28 29 29 29 30 30 30 30 30 31 31 31 31 32 32 32 33 33 33 33 32 32 32 31 32 32 31 30 30 30 30 29
26 25 25 25 25 26 26 27 28 29 30 30 31 31 31 32 32 32 33 33 33 34 34 34 35 35 36 36 36 36 35 34 34 34 33 33 33 32 32 32 32 32 31
28 26 26 27 27 27 28 28 29 30 31 31 32 31 32 33 33 34 35 35 35 35 35 36 37 38 38 38 37 37 37 37 37 35 34 34 34 34 34 34 34 34 34
29 27 28 28 28 29 29 29 30 31 32 32 32 32 33 34 35 35 36 36 37 37 37 38 39 39 38 38 38 38 38 38 38 37 36 35 35 36 36 36 35 35 35
30 29 29 29 30 30 31 31 32 32 32 33 33 34 35 35 36 36 36 36 37 38 38 39 39 39 39 39 39 39 40 39 38 37 37 36 36 36 37 37 37 37 37
31 30 29 30 31 31 32 33 33 34 34 33 35 35 35 36 36 36 36 37 38 38 38 38 38 39 39 40 40 39 39 39 39 39 38 38 38 38 38 38 38 38 38
32 31 30 30 31 32 33 33 34 34 34 34 34 35 35 35 36 36 37 37 37 37 38 38 39 39 39 40 40 40 40 40 40 40 40 39 39 39 38 38 38 38 38
31 31 31 31 32 33 34 34 34 34 34 35 35 35 35 35 35 35 36 37 38 38 39 39 40 40 40 39 39 39 39 39 40 40 40 39 39 39 40 40 39 39 39
31 31 32 32 33 33 34 35 35 35 35 36 36 37 36 36 36 36 37 37 38 39 39 38 38 38 38 38 38 38 38 39 39 39 40 40 40 40 40 40 40 40 40
32 32 33 33 34 34 35 35 35 35 36 37 37 37 37 37 37 37 37 37 37 37 37 37 37 37 36 37 37 38 38 38 38 39 40 40 41 41 40 40 40 39 39
33 33 34 34 34 35 35 35 35 36 37 37 37 37 37 38 37 37 37 36 36 35 36 36 36 36 35 36 36 37 37 37 37 38 39 40 40 40 40 39 39 39 39
33 34 34 34 34 35 35 34 35 35 35 36 36 37 37 37 37 36 36 36 36 36 36 36 37 36 36 36 36 36 37 37 37 37 37 38 38 38 38 38 38 37 37
32 33 33 34 33 34 33 34 34 34 34 35 35 36 36 36 36 37 37 36 36 36 37 36 36 36 36 36 37 37 37 37 37 37 37 37 37 37 37 37 37 37 37
32 32 33 34 33 33 33 33 34 34 34 35 35 35 35 36 36 37 37 37 37 36 35 35 35 36 36 36 36 36 36 36 36 36 36 36 36 36 36 37 37 37 37
31 32 32 32 33 34 34 34 34 35 36 36 36 35 36 36 36 36 36 36 36 35 35 36 36 36 36 36 37 36 36 35 35 35 35 36 36 36 36 37 37 37 37
29 29 30 30 31 31 32 33 33 34 35 35 35 35 35 34 34 34 35 34 34 34 34 34 34 34 35 36 36 36 35 35 35 35 36 35 35 36 36 36 36 36 36
28 28 29 30 30 31 31 32 32 33 34 34 34 34 34 34 34 34 34 33 33 33 33 34 34 34 35 35 35 35 35 35 35 35 36 36 36 36 36 35 35 35 35
28 29 29 30 30 30 31 31 31 32 32 33 33 34 33 33 33 33 32 32 32 33 33 33 34 34 34 34 35 35 35 35 36 36 36 36 36 36 36 35 35 35 35

GEFSGL_500_meanwind_258.txt.gz
Wind_Speed
9 9 9 9 9 9 9 9 9 9 9 9 9 10 10 10 11 11 12 13 14 14 14 14 14 14 14 14 15 15 16 17 17 17 18 18 18 18 19 19 20 20 21
12 12 12 12 12 11 11 12 12 12 12 11 11 12 12 12 12 13 14 15 16 16 17 16 16 16 16 16 17 18 18 19 18 18 18 19 20 19 19 20 21 22 22
14 14 14 14 14 14 14 14 14 14 14 14 14 14 14 15 15 16 16 17 17 18 19 18 18 19 19 19 19 20 20 20 20 20 20 21 21 21 21 21 22 23 24
17 16 16 16 16 16 16 16 16 16 16 16 17 17 18 18 18 19 19 19 19 19 20 21 21 21 21 21 21 22 22 22 22 22 22 23 23 24 23 24 24 24 24
18 18 18 18 18 18 18 18 18 18 18 18 19 20 20 20 20 21 22 21 21 21 22 22 23 23 24 24 24 23 24 24 24 25 25 25 25 25 26 26 25 26 26
20 20 20 20 20 19 20 20 20 20 20 21 21 22 22 22 23 23 24 24 24 24 24 24 25 25 26 26 26 26 26 27 27 28 28 27 27 27 27 27 27 28 28
23 22 22 22 22 22 23 22 22 22 23 23 23 23 23 24 25 26 27 27 27 27 27 27 28 28 28 28 29 29 29 29 30 30 30 29 29 29 29 29 30 30 30
25 24 24 23 24 24 25 25 25 25 25 25 25 25 25 25 25 26 27 28 29 29 29 30 30 31 30 30 31 31 30 30 31 31 31 31 31 31 31 31 32 32 31
25 25 25 26 26 26 27 27 27 27 27 27 27 26 27 28 28 29 30 30 30 29 30 31 32 32 31 31 32 32 32 33 33 33 34 33 33 32 33 32 32 32 32
27 28 28 27 26 27 27 27 27 28 28 28 28 29 29 30 30 31 31 32 31 31 31 32 32 32 31 32 33 33 34 34 35 35 35 35 34 34 33 33 34 34 34
28 29 29 28 27 27 28 28 29 29 30 30 30 30 31 31 31 31 32 33 33 32 32 33 33 33 33 34 34 35 35 35 36 37 37 37 36 36 35 35 35 35 35
29 29 28 28 28 29 29 30 31 30 31 31 31 32 32 32 32 32 32 33 34 34 34 35 35 35 35 35 35 36 36 37 37 37 38 38 38 38 37 37 37 36 36
28 27 28 29 30 31 31 32 32 32 33 33 32 32 33 33 33 34 34 35 35 35 35 35 36 36 36 36 36 37 37 37 37 38 38 38 38 38 38 38 38 39 38
28 29 30 31 31 32 33 33 33 34 34 33 33 33 34 34 35 35 35 36 36 36 36 36 36 36 37 37 38 38 39 38 38 39 39 39 38 39 39 40 40 39 39
30 31 31 32 33 33 33 34 34 34 34 33 34 35 35 35 35 36 36 36 36 36 36 36 36 37 37 38 38 39 39 40 40 40 40 39 39 40 40 41 40 40 40
32 32 32 32 33 33 34 34 34 35 35 34 34 35 35 35 34 35 35 35 36 36 36 36 37 38 38 38 39 40 40 40 40 40 40 40 40 40 39 39 39 39 40
32 32 32 33 33 33 34 34 34 34 34 34 34 34 34 34 35 35 35 35 36 37 37 38 38 38 39 39 40 40 40 40 41 39 39 39 39 39 40 40 40 40 40
31 31 32 33 33 34 34 33 33 33 33 33 33 33 34 34 35 36 36 36 37 37 37 38 38 38 38 38 39 39 39 39 40 40 39 39 39 39 39 39 40 40 40
30 30 31 32 33 33 33 32 32 33 33 33 33 33 34 34 35 37 37 37 37 37 38 38 38 38 38 38 38 38 38 38 38 39 39 38 38 38 38 38 39 39 40
28 29 29 31 31 31 32 32 32 32 33 33 33 34 34 34 35 36 37 38 38 38 37 37 37 38 38 37 38 38 38 38 38 38 38 39 38 38 38 38 38 38 38
28 29 30 30 31 31 31 31 32 32 33 33 33 34 35 36 36 37 37 36 36 36 37 37 38 38 38 38 38 38 38 38 38 38 39 39 39 38 38 38 38 38 39
28 29 29 29 30 30 30 30 30 31 33 33 34 35 35 36 37 37 36 36 36 36 37 38 38 37 37 37 37 37 37 38 38 38 38 38 37 38 38 38 38 37 37
28 28 29 29 28 28 29 29 30 31 32 32 33 34 35 36 37 36 35 35 35 36 36 36 37 37 37 36 36 36 37 37 37 37 37 36 37 37 37 37 37 36 36
27 28 28 28 29 29 29 30 30 31 31 32 32 33 34 35 35 35 35 35 35 35 36 36 36 36 36 35 35 36 36 35 35 35 35 35 35 36 36 35 35 35 35
27 27 27 28 28 29 30 31 31 32 33 33 33 34 34 35 35 35 35 35 35 36 36 36 35 35 35 35 34 34 34 34 34 34 34 34 34 34 34 34 34 34 35
26 26 27 27 28 29 30 30 31 32 32 32 32 33 34 34 35 35 35 34 34 34 34 33 33 34 34 34 34 34 34 34 34 34 34 34 34 34 34 34 34 34 34

GEFSGL_500_meanwind_264.txt.gz
Wind_Speed
11 11 11 11 11 12 12 12 12 12 12 12 12 11 11 11 11 12 12 12 13 13 13 14 15 15 16 16 16 17 17 17 17 16 17 18 18 18 19 18 18 19 19
13 13 13 13 13 13 13 13 13 14 14 14 14 13 13 14 13 13 14 14 14 15 15 16 17 18 18 18 18 19 19 20 20 19 19 19 20 20 20 20 19 20 20
15 15 15 15 15 15 15 15 15 16 16 16 16 16 16 16 16 16 16 16 16 17 18 18 19 19 20 20 21 21 21 21 21 22 21 21 22 22 21 21 21 21 22
17 17 17 18 18 18 18 18 17 18 18 18 18 18 18 18 18 18 18 18 19 19 20 20 20 21 22 22 23 23 23 23 23 23 23 23 23 23 23 23 23 23 23
19 19 19 20 20 20 20 19 19 19 19 19 19 20 20 20 20 20 21 21 21 22 22 22 23 23 23 24 24 24 24 25 25 24 24 24 24 24 24 24 24 25 25
21 21 21 21 22 22 21 22 21 21 21 21 22 22 22 22 22 22 23 23 24 24 24 24 25 25 25 25 25 25 25 25 26 26 26 26 26 26 26 26 26 26 26
23 23 23 23 23 23 23 23 24 24 25 24 24 24 24 23 24 24 25 26 26 26 26 26 26 26 26 26 26 26 26 26 26 26 26 27 26 27 27 28 28 28 28
23 23 23 23 24 24 25 25 26 26 26 25 25 25 26 26 26 27 28 28 29 28 28 28 27 27 27 28 28 28 28 28 28 28 28 28 29 29 29 29 30 30 30
25 24 24 25 25 25 25 26 26 27 27 27 27 27 28 28 28 29 30 30 30 30 29 28 28 29 29 30 29 29 29 30 30 30 30 30 31 31 31 31 32 33 32
27 27 27 27 27 27 27 27 28 29 28 28 28 29 29 29 30 31 31 31 31 31 30 30 30 30 31 31 31 31 31 32 32 32 32 33 32 32 33 34 33 33 33
29 30 29 28 29 29 29 30 30 30 30 30 30 30 31 31 31 31 32 32 32 32 31 32 32 32 32 32 32 32 33 34 34 35 35 35 34 35 35 35 35 35 35
30 30 30 30 31 31 31 30 30 30 30 31 32 32 32 32 32 32 32 33 33 33 33 33 33 33 33 33 33 34 35 36 36 36 36 36 36 36 35 35 36 36 36
31 31 32 32 33 32 31 31 31 31 32 32 33 33 33 33 33 33 33 33 34 34 35 35 35 35 35 35 35 35 36 37 37 37 38 37 37 36 36 37 37 37 37
32 32 32 33 33 32 32 32 33 32 32 33 33 33 34 33 33 33 34 34 35 35 35 35 35 35 35 35 36 36 37 37 38 38 38 38 38 38 38 38 38 37 37
32 32 32 32 32 33 34 33 33 33 32 33 33 33 33 33 33 33 34 35 35 35 35 35 35 36 36 36 37 38 38 38 38 38 39 38 38 38 38 38 39 39 39
31 32 32 33 33 33 34 34 34 34 34 33 33 33 33 33 34 34 35 36 36 36 36 35 35 36 37 37 37 37 38 38 39 38 38 38 38 38 38 38 38 39 39
31 31 33 33 34 34 34 34 34 35 34 32 32 33 33 34 34 34 35 36 37 37 36 36 36 37 37 37 38 38 38 38 39 39 40 39 39 39 39 38 39 39 40
31 32 32 33 33 34 34 34 33 34 34 34 33 33 34 34 35 35 35 36 37 37 36 36 37 37 38 38 38 38 38 39 39 39 40 40 40 40 40 40 40 39 39
32 32 31 32 33 34 33 34 34 34 34 33 33 34 34 35 35 36 36 37 36 36 36 36 37 38 38 38 38 38 39 40 39 39 39 40 40 40 40 40 40 40 40
31 31 32 33 34 34 33 32 32 32 33 34 34 33 33 34 35 36 36 36 36 36 37 37 37 37 38 38 38 39 39 39 39 39 39 40 39 39 40 40 40 39 39
30 30 31 31 31 32 32 32 31 31 31 32 32 33 34 34 35 36 35 36 36 37 37 38 37 37 37 38 39 39 39 39 38 38 38 39 39 39 39 39 39 39 40
29 29 29 28 28 28 28 29 29 30 31 32 33 32 33 34 35 35 36 36 36 37 37 37 37 38 38 39 40 39 39 38 38 38 39 39 39 39 39 39 39 39 39
28 29 29 28 28 28 28 28 29 30 31 32 32 33 33 34 35 36 36 36 37 37 37 37 37 38 39 39 39 38 37 38 38 38 39 39 39 39 39 39 39 39 39
27 27 28 28 28 28 28 29 30 31 32 32 32 33 34 35 36 36 36 36 36 37 37 37 38 38 38 39 38 38 38 38 38 38 38 39 39 39 39 39 39 39 39
26 26 27 27 27 28 28 29 30 31 32 32 33 34 36 36 37 37 37 37 37 37 38 38 39 38 38 38 38 38 38 39 38 38 38 38 38 37 38 38 38 38 39
25 25 26 27 27 28 29 29 30 31 32 33 34 35 35 36 36 37 37 37 38 38 38 39 39 39 38 38 38 38 38 38 38 38 37 37 37 37 38 38 39 39 39